Time,TemperatureF,DewpointF,PressureIn,WindDirection,WindDirectionDegrees,WindSpeedMPH,WindSpeedGustMPH,Humidity,HourlyPrecipIn,Conditions,Clouds,dailyrainin,SoftwareType,DateUTC
2013-02-27 00:03:00,31.0,30.5,29.63,NNW,335,7.1,9.2,98,0.00,RA,,0.00,WeatherDisplay:10.37,2013-02-27 06:03:00,
2013-02-27 00:08:00,31.0,30.5,29.63,North,8,6.0,9.2,98,0.00,RA,,0.00,WeatherDisplay:10.37,2013-02-27 06:08:00,
2013-02-27 00:13:00,30.9,30.4,29.63,NNW,347,8.1,10.4,98,0.00,,,0.00,WeatherDisplay:10.37,2013-02-27 06:13:00,
2013-02-27 00:18:00,30.9,30.4,29.63,North,351,8.4,10.4,98,0.00,,,0.00,WeatherDisplay:10.37,2013-02-27 06:18:00,
2013-02-27 00:23:00,30.9,30.1,29.64,NNE,16,8.7,11.5,97,0.00,,,0.00,WeatherDisplay:10.37,2013-02-27 06:23:00,
2013-02-27 00:28:00,30.8,30.0,29.64,North,5,8.9,11.5,97,0.00,,,0.00,WeatherDisplay:10.37,2013-02-27 06:28:00,
2013-02-27 00:33:00,30.8,30.0,29.64,NNW,340,7.8,11.5,97,0.00,,,0.00,WeatherDisplay:10.37,2013-02-27 06:33:00,
2013-02-27 00:38:00,30.7,30.0,29.63,NW,321,10.3,12.7,97,0.00,,,0.00,WeatherDisplay:10.37,2013-02-27 06:38:00,
2013-02-27 00:43:00,30.7,30.0,29.63,NNW,339,8.1,10.4,97,0.00,,,0.00,WeatherDisplay:10.37,2013-02-27 06:43:00,
2013-02-27 00:48:00,30.6,29.9,29.63,North,9,7.0,9.2,97,0.00,,,0.00,WeatherDisplay:10.37,2013-02-27 06:48:00,
2013-02-27 00:54:00,30.6,29.9,29.64,NNE,23,6.3,8.1,97,0.00,,,0.00,WeatherDisplay:10.37,2013-02-27 06:54:00,
2013-02-27 00:59:00,30.5,29.8,29.63,North,354,8.5,10.4,97,0.00,,,0.00,WeatherDisplay:10.37,2013-02-27 06:59:00,
2013-02-27 01:04:00,30.5,29.8,29.64,North,5,8.0,11.5,97,0.00,,,0.00,WeatherDisplay:10.37,2013-02-27 07:04:00,
2013-02-27 01:09:00,30.4,29.7,29.63,NNE,20,8.1,10.4,97,0.00,,,0.00,WeatherDisplay:10.37,2013-02-27 07:09:00,
2013-02-27 01:14:00,30.4,29.7,29.64,NW,314,5.8,12.7,97,0.00,,,0.00,WeatherDisplay:10.37,2013-02-27 07:14:00,
2013-02-27 01:19:00,30.4,29.7,29.64,NNE,29,6.1,11.5,97,0.00,,,0.00,WeatherDisplay:10.37,2013-02-27 07:19:00,
2013-02-27 01:24:00,30.4,29.7,29.64,NW,304,7.6,9.2,97,0.00,,,0.00,WeatherDisplay:10.37,2013-02-27 07:24:00,
2013-02-27 01:29:00,30.3,29.6,29.64,NNW,339,7.8,11.0,97,0.00,,,0.00,WeatherDisplay:10.37,2013-02-27 07:29:00,
2013-02-27 01:34:00,30.3,29.6,29.63,NNE,23,7.7,10.4,97,0.00,,,0.00,WeatherDisplay:10.37,2013-02-27 07:34:00,
2013-02-27 01:39:00,30.2,29.5,29.63,North,354,9.3,11.5,97,0.00,,,0.00,WeatherDisplay:10.37,2013-02-27 07:39:00,
2013-02-27 01:44:00,30.2,29.5,29.63,North,3,7.0,13.8,97,0.00,,,0.00,WeatherDisplay:10.37,2013-02-27 07:44:00,
2013-02-27 01:49:00,30.1,29.4,29.63,NW,324,9.1,11.5,97,0.00,,,0.00,WeatherDisplay:10.37,2013-02-27 07:49:00,
2013-02-27 01:54:00,30.1,29.4,29.63,NNE,15,8.8,11.5,97,0.00,,,0.00,WeatherDisplay:10.37,2013-02-27 07:54:00,
2013-02-27 01:59:00,30.1,29.4,29.63,North,7,7.8,10.4,97,0.00,,,0.00,WeatherDisplay:10.37,2013-02-27 07:59:00,
2013-02-27 02:04:00,30.0,29.3,29.63,NNW,340,6.6,9.2,97,0.00,,,0.00,WeatherDisplay:10.37,2013-02-27 08:04:00,
2013-02-27 02:09:00,30.0,29.3,29.63,North,356,7.1,10.4,97,0.00,,,0.00,WeatherDisplay:10.37,2013-02-27 08:09:00,
2013-02-27 02:14:00,29.9,29.2,29.63,North,1,8.3,10.4,97,0.00,,,0.00,WeatherDisplay:10.37,2013-02-27 08:14:00,
2013-02-27 02:19:00,29.9,29.2,29.63,NNE,13,6.0,9.2,97,0.00,,,0.00,WeatherDisplay:10.37,2013-02-27 08:19:00,
2013-02-27 02:24:00,29.8,29.1,29.63,NNW,328,6.9,11.5,97,0.00,,,0.00,WeatherDisplay:10.37,2013-02-27 08:24:00,
2013-02-27 02:29:00,29.8,29.1,29.63,NNW,329,7.1,9.2,97,0.00,,,0.00,WeatherDisplay:10.37,2013-02-27 08:29:00,
2013-02-27 02:34:00,29.8,29.1,29.63,North,351,6.0,9.0,97,0.00,,,0.00,WeatherDisplay:10.37,2013-02-27 08:34:00,
2013-02-27 02:39:00,29.7,29.0,29.63,North,352,7.3,10.4,97,0.00,,,0.00,WeatherDisplay:10.37,2013-02-27 08:39:00,
2013-02-27 02:44:00,29.7,29.0,29.63,North,356,7.9,13.8,97,0.00,,,0.00,WeatherDisplay:10.37,2013-02-27 08:44:00,
2013-02-27 02:49:00,29.7,28.7,29.63,NNE,13,6.3,9.0,96,0.00,,,0.00,WeatherDisplay:10.37,2013-02-27 08:49:00,
2013-02-27 02:54:00,29.7,28.7,29.63,North,354,6.5,8.1,96,0.00,,,0.00,WeatherDisplay:10.37,2013-02-27 08:54:00,
2013-02-27 02:59:00,29.6,28.6,29.63,North,351,7.8,10.4,96,0.00,,,0.00,WeatherDisplay:10.37,2013-02-27 08:59:00,
2013-02-27 03:04:00,29.6,28.6,29.63,NNE,17,8.3,11.5,96,0.00,,,0.00,WeatherDisplay:10.37,2013-02-27 09:04:00,
2013-02-27 03:09:00,29.6,28.6,29.63,NNE,23,5.0,7.0,96,0.00,,,0.00,WeatherDisplay:10.37,2013-02-27 09:09:00,
2013-02-27 03:14:00,29.5,28.5,29.63,NNW,339,8.3,10.4,96,0.00,,,0.00,WeatherDisplay:10.37,2013-02-27 09:14:00,
2013-02-27 03:19:00,29.4,28.4,29.63,NNW,339,7.0,10.4,96,0.00,,,0.00,WeatherDisplay:10.37,2013-02-27 09:19:00,
2013-02-27 03:24:00,29.5,28.5,29.63,NNE,30,7.0,9.2,96,0.00,,,0.00,WeatherDisplay:10.37,2013-02-27 09:24:00,
2013-02-27 03:29:00,29.4,28.4,29.63,North,354,6.9,10.4,96,0.00,,,0.00,WeatherDisplay:10.37,2013-02-27 09:29:00,
2013-02-27 03:34:00,29.4,28.4,29.63,NE,35,6.4,10.4,96,0.00,,,0.00,WeatherDisplay:10.37,2013-02-27 09:34:00,
2013-02-27 03:39:00,29.4,28.4,29.64,NW,322,8.3,10.4,96,0.00,,,0.00,WeatherDisplay:10.37,2013-02-27 09:39:00,
2013-02-27 03:44:00,29.3,28.3,29.63,NNE,17,6.6,10.4,96,0.00,,,0.00,WeatherDisplay:10.37,2013-02-27 09:44:00,
2013-02-27 03:50:00,29.3,28.3,29.64,North,1,6.6,11.5,96,0.00,,,0.00,WeatherDisplay:10.37,2013-02-27 09:50:00,
2013-02-27 03:55:00,29.3,28.3,29.64,NNE,18,9.5,11.5,96,0.00,,,0.00,WeatherDisplay:10.37,2013-02-27 09:55:00,
2013-02-27 04:00:00,29.3,28.3,29.64,NE,41,8.0,11.5,96,0.00,,,0.00,WeatherDisplay:10.37,2013-02-27 10:00:00,
2013-02-27 04:05:00,29.3,28.3,29.64,NNE,33,7.5,9.2,96,0.00,,,0.00,WeatherDisplay:10.37,2013-02-27 10:05:00,
2013-02-27 04:10:00,29.3,28.3,29.64,NNE,23,5.8,10.4,96,0.00,,,0.00,WeatherDisplay:10.37,2013-02-27 10:10:00,
2013-02-27 04:15:00,29.3,28.3,29.65,NNE,30,4.7,9.2,96,0.00,,,0.00,WeatherDisplay:10.37,2013-02-27 10:15:00,
2013-02-27 04:20:00,29.3,28.3,29.65,NNE,12,7.0,9.0,96,0.00,,,0.00,WeatherDisplay:10.37,2013-02-27 10:20:00,
2013-02-27 04:25:00,29.3,28.3,29.65,North,356,6.3,12.7,96,0.00,,,0.00,WeatherDisplay:10.37,2013-02-27 10:25:00,
2013-02-27 04:30:00,29.3,28.3,29.65,NNE,16,7.4,10.4,96,0.00,,,0.00,WeatherDisplay:10.37,2013-02-27 10:30:00,
2013-02-27 04:35:00,29.3,28.3,29.65,NNE,17,6.0,8.0,96,0.00,,,0.00,WeatherDisplay:10.37,2013-02-27 10:35:00,
2013-02-27 04:40:00,29.3,28.3,29.65,NW,322,5.3,6.9,96,0.00,,,0.00,WeatherDisplay:10.37,2013-02-27 10:40:00,
2013-02-27 04:45:00,29.2,28.2,29.65,NNW,331,3.9,5.8,96,0.00,,,0.00,WeatherDisplay:10.37,2013-02-27 10:45:00,
2013-02-27 04:50:00,29.3,28.3,29.65,North,360,6.8,9.2,96,0.00,,,0.00,WeatherDisplay:10.37,2013-02-27 10:50:00,
2013-02-27 04:55:00,29.3,28.3,29.65,NNE,23,4.8,10.4,96,0.00,,,0.00,WeatherDisplay:10.37,2013-02-27 10:55:00,
2013-02-27 05:00:00,29.3,28.3,29.65,NE,53,4.0,6.9,96,0.00,,,0.00,WeatherDisplay:10.37,2013-02-27 11:00:00,
2013-02-27 05:05:00,29.3,28.3,29.65,ENE,72,3.3,7.0,96,0.00,,,0.00,WeatherDisplay:10.37,2013-02-27 11:05:00,
2013-02-27 05:10:00,29.3,28.3,29.65,NNW,340,3.0,3.5,96,0.00,,,0.00,WeatherDisplay:10.37,2013-02-27 11:10:00,
2013-02-27 05:15:00,29.3,28.3,29.65,South,181,3.4,4.6,96,0.00,,,0.00,WeatherDisplay:10.37,2013-02-27 11:15:00,
2013-02-27 05:20:00,29.4,28.4,29.65,NE,47,3.0,4.6,96,0.00,,,0.00,WeatherDisplay:10.37,2013-02-27 11:20:00,
2013-02-27 05:25:00,29.4,28.4,29.66,North,9,4.6,8.1,96,0.00,,,0.00,WeatherDisplay:10.37,2013-02-27 11:25:00,
2013-02-27 05:30:00,29.3,28.3,29.66,NNE,26,4.3,6.0,96,0.00,,,0.00,WeatherDisplay:10.37,2013-02-27 11:30:00,
2013-02-27 05:35:00,29.3,28.3,29.66,NNE,23,5.3,6.9,96,0.00,,,0.00,WeatherDisplay:10.37,2013-02-27 11:35:00,
2013-02-27 05:40:00,29.3,28.3,29.66,NNE,33,4.5,6.9,96,0.00,,,0.00,WeatherDisplay:10.37,2013-02-27 11:40:00,
2013-02-27 05:45:00,29.3,28.3,29.66,NNE,33,6.8,9.2,96,0.00,,,0.00,WeatherDisplay:10.37,2013-02-27 11:45:00,
2013-02-27 05:50:00,29.3,28.3,29.66,NNE,19,6.0,9.0,96,0.00,,,0.00,WeatherDisplay:10.37,2013-02-27 11:50:00,
2013-02-27 05:55:00,29.3,28.3,29.66,NNE,17,7.3,9.2,96,0.00,,,0.00,WeatherDisplay:10.37,2013-02-27 11:55:00,
2013-02-27 06:00:00,29.3,28.3,29.66,North,359,6.9,9.2,96,0.00,,,0.00,WeatherDisplay:10.37,2013-02-27 12:00:00,
2013-02-27 06:05:00,29.3,28.3,29.66,NNW,339,6.5,9.2,96,0.00,,,0.00,WeatherDisplay:10.37,2013-02-27 12:05:00,
2013-02-27 06:10:00,29.3,28.6,29.66,North,9,7.0,10.4,97,0.00,,,0.00,WeatherDisplay:10.37,2013-02-27 12:10:00,
2013-02-27 06:15:00,29.2,28.2,29.66,NNW,340,6.5,9.2,96,0.00,,,0.00,WeatherDisplay:10.37,2013-02-27 12:15:00,
2013-02-27 06:20:00,29.2,28.2,29.66,North,356,7.6,11.5,96,0.00,,,0.00,WeatherDisplay:10.37,2013-02-27 12:20:00,
2013-02-27 06:25:00,29.1,28.1,29.66,NE,47,6.5,9.2,96,0.00,,,0.00,WeatherDisplay:10.37,2013-02-27 12:25:00,
2013-02-27 06:30:00,29.1,28.1,29.66,NNE,12,6.2,9.2,96,0.00,,,0.00,WeatherDisplay:10.37,2013-02-27 12:30:00,
2013-02-27 06:35:00,29.0,28.3,29.66,NNE,15,6.5,11.5,97,0.00,,,0.00,WeatherDisplay:10.37,2013-02-27 12:35:00,
2013-02-27 06:40:00,29.0,28.3,29.66,North,354,7.3,8.1,97,0.00,,,0.00,WeatherDisplay:10.37,2013-02-27 12:40:00,
2013-02-27 06:45:00,28.9,28.2,29.66,North,359,6.9,9.2,97,0.00,,,0.00,WeatherDisplay:10.37,2013-02-27 12:45:00,
2013-02-27 06:50:00,28.9,28.2,29.66,NNE,12,5.5,9.2,97,0.00,,,0.00,WeatherDisplay:10.37,2013-02-27 12:50:00,
2013-02-27 06:55:00,28.9,28.2,29.66,NNE,25,7.1,9.2,97,0.00,,,0.00,WeatherDisplay:10.37,2013-02-27 12:55:00,
2013-02-27 07:00:00,28.9,28.2,29.66,North,354,7.7,10.4,97,0.00,,,0.00,WeatherDisplay:10.37,2013-02-27 13:00:00,
2013-02-27 07:06:00,29.0,28.3,29.66,NNE,26,7.9,10.4,97,0.00,,,0.00,WeatherDisplay:10.37,2013-02-27 13:06:00,
2013-02-27 07:11:00,29.0,28.3,29.66,NNE,12,6.5,11.5,97,0.00,,,0.00,WeatherDisplay:10.37,2013-02-27 13:11:00,
2013-02-27 07:16:00,29.1,28.1,29.67,NNW,345,4.8,7.0,96,0.00,,,0.00,WeatherDisplay:10.37,2013-02-27 13:16:00,
2013-02-27 07:21:00,29.1,28.1,29.67,North,1,6.8,8.1,96,0.00,,,0.00,WeatherDisplay:10.37,2013-02-27 13:21:00,
2013-02-27 07:26:00,29.2,28.2,29.67,North,1,7.7,9.2,96,0.00,,,0.00,WeatherDisplay:10.37,2013-02-27 13:26:00,
2013-02-27 07:31:00,29.2,28.2,29.67,NNW,333,5.9,9.2,96,0.00,,,0.00,WeatherDisplay:10.37,2013-02-27 13:31:00,
2013-02-27 07:36:00,29.2,28.2,29.67,North,350,8.7,11.5,96,0.00,,,0.00,WeatherDisplay:10.37,2013-02-27 13:36:00,
2013-02-27 07:41:00,29.2,28.2,29.67,NNW,333,6.3,11.5,96,0.00,,,0.00,WeatherDisplay:10.37,2013-02-27 13:41:00,
2013-02-27 07:46:00,29.2,28.2,29.67,NE,36,6.7,8.1,96,0.00,,,0.00,WeatherDisplay:10.37,2013-02-27 13:46:00,
2013-02-27 07:51:00,29.3,28.3,29.67,NNE,27,6.0,10.4,96,0.00,,,0.00,WeatherDisplay:10.37,2013-02-27 13:51:00,
2013-02-27 07:56:00,29.3,28.3,29.67,WNW,282,8.0,8.0,96,0.00,,,0.00,WeatherDisplay:10.37,2013-02-27 13:56:00,
2013-02-27 08:01:00,29.3,28.3,29.67,NNE,12,6.8,11.5,96,0.00,,,0.00,WeatherDisplay:10.37,2013-02-27 14:01:00,
2013-02-27 08:06:00,29.4,28.4,29.67,North,359,6.0,8.1,96,0.00,,,0.00,WeatherDisplay:10.37,2013-02-27 14:06:00,
2013-02-27 08:11:00,29.4,28.4,29.67,NE,45,5.4,9.2,96,0.00,,,0.00,WeatherDisplay:10.37,2013-02-27 14:11:00,
2013-02-27 08:16:00,29.4,28.4,29.67,NE,43,9.1,11.5,96,0.00,,,0.00,WeatherDisplay:10.37,2013-02-27 14:16:00,
2013-02-27 08:21:00,29.4,28.4,29.68,NNE,27,6.4,9.2,96,0.00,,,0.00,WeatherDisplay:10.37,2013-02-27 14:21:00,
2013-02-27 08:26:00,29.5,28.5,29.68,NNE,20,7.7,10.4,96,0.00,,,0.00,WeatherDisplay:10.37,2013-02-27 14:26:00,
2013-02-27 08:31:00,29.5,28.5,29.68,NNW,334,8.8,10.4,96,0.00,,,0.00,WeatherDisplay:10.37,2013-02-27 14:31:00,
2013-02-27 08:36:00,29.6,28.6,29.68,NE,44,7.0,11.5,96,0.00,,,0.00,WeatherDisplay:10.37,2013-02-27 14:36:00,
2013-02-27 08:41:00,29.6,28.6,29.68,NNE,19,7.3,11.5,96,0.00,,,0.00,WeatherDisplay:10.37,2013-02-27 14:41:00,
2013-02-27 08:47:00,29.7,28.7,29.68,NNE,19,7.9,10.4,96,0.00,,,0.00,WeatherDisplay:10.37,2013-02-27 14:47:00,
2013-02-27 08:52:00,29.8,28.8,29.68,North,350,8.4,10.4,96,0.00,,,0.00,WeatherDisplay:10.37,2013-02-27 14:52:00,
2013-02-27 08:57:00,30.0,29.0,29.68,North,352,10.0,13.0,96,0.00,,,0.00,WeatherDisplay:10.37,2013-02-27 14:57:00,
2013-02-27 09:02:00,30.0,29.0,29.68,North,11,8.7,10.4,96,0.00,,,0.00,WeatherDisplay:10.37,2013-02-27 15:02:00,
2013-02-27 09:07:00,30.1,29.1,29.68,NNW,341,8.1,10.4,96,0.00,,,0.00,WeatherDisplay:10.37,2013-02-27 15:07:00,
2013-02-27 09:12:00,30.2,29.2,29.68,NNE,12,7.6,8.1,96,0.00,,,0.00,WeatherDisplay:10.37,2013-02-27 15:12:00,
2013-02-27 09:18:00,30.3,29.3,29.69,NE,43,8.7,11.5,96,0.00,,,0.00,WeatherDisplay:10.37,2013-02-27 15:18:00,
2013-02-27 09:23:00,30.3,29.3,29.69,North,5,6.6,9.2,96,0.00,,,0.00,WeatherDisplay:10.37,2013-02-27 15:23:00,
2013-02-27 09:29:00,30.4,29.4,29.69,NNE,20,6.3,10.4,96,0.00,,,0.00,WeatherDisplay:10.37,2013-02-27 15:29:00,
2013-02-27 09:34:00,30.4,29.4,29.69,NE,41,7.0,10.4,96,0.00,,,0.00,WeatherDisplay:10.37,2013-02-27 15:34:00,
2013-02-27 09:39:00,30.4,29.4,29.69,North,8,5.1,8.1,96,0.00,,,0.00,WeatherDisplay:10.37,2013-02-27 15:39:00,
2013-02-27 09:44:00,30.4,29.4,29.69,NNE,18,6.6,10.4,96,0.00,,,0.00,WeatherDisplay:10.37,2013-02-27 15:44:00,
2013-02-27 09:49:00,30.5,29.5,29.69,NNE,26,6.6,9.2,96,0.00,,,0.00,WeatherDisplay:10.37,2013-02-27 15:49:00,
2013-02-27 09:54:00,30.6,29.6,29.69,NNE,17,6.8,10.4,96,0.00,,,0.00,WeatherDisplay:10.37,2013-02-27 15:54:00,
2013-02-27 09:59:00,30.8,29.8,29.69,NNE,13,6.7,8.1,96,0.00,,,0.00,WeatherDisplay:10.37,2013-02-27 15:59:00,
2013-02-27 10:04:00,30.9,29.9,29.69,WNW,302,4.8,6.9,96,0.00,,,0.00,WeatherDisplay:10.37,2013-02-27 16:04:00,
2013-02-27 10:09:00,31.0,30.0,29.69,NNE,15,5.2,6.9,96,0.00,,,0.00,WeatherDisplay:10.37,2013-02-27 16:09:00,
2013-02-27 10:14:00,31.1,30.1,29.69,NE,41,6.1,9.2,96,0.00,,,0.00,WeatherDisplay:10.37,2013-02-27 16:14:00,
2013-02-27 10:20:00,31.1,30.1,29.69,NNE,30,5.2,6.9,96,0.00,,,0.00,WeatherDisplay:10.37,2013-02-27 16:20:00,
2013-02-27 10:25:00,31.2,30.2,29.69,NNW,330,4.3,6.9,96,0.00,,,0.00,WeatherDisplay:10.37,2013-02-27 16:25:00,
2013-02-27 10:30:00,31.3,30.3,29.69,NNE,29,4.7,8.1,96,0.00,,,0.00,WeatherDisplay:10.37,2013-02-27 16:30:00,
2013-02-27 10:35:00,31.3,30.3,29.69,NNE,12,4.2,9.2,96,0.00,,,0.00,WeatherDisplay:10.37,2013-02-27 16:35:00,
2013-02-27 10:40:00,31.3,30.3,29.69,NW,322,5.7,7.0,96,0.00,,,0.00,WeatherDisplay:10.37,2013-02-27 16:40:00,
2013-02-27 10:45:00,31.4,30.4,29.69,NE,36,6.0,8.0,96,0.00,,,0.00,WeatherDisplay:10.37,2013-02-27 16:45:00,
2013-02-27 10:50:00,31.5,30.5,29.69,North,351,3.5,8.1,96,0.00,,,0.00,WeatherDisplay:10.37,2013-02-27 16:50:00,
2013-02-27 10:55:00,31.6,30.6,29.69,NNE,20,3.5,6.9,96,0.00,,,0.00,WeatherDisplay:10.37,2013-02-27 16:55:00,
2013-02-27 11:00:00,31.7,30.7,29.69,NNW,344,5.0,7.0,96,0.00,,,0.00,WeatherDisplay:10.37,2013-02-27 17:00:00,
2013-02-27 11:05:00,31.7,30.7,29.69,NNW,327,4.7,8.1,96,0.00,,,0.00,WeatherDisplay:10.37,2013-02-27 17:05:00,
2013-02-27 11:10:00,31.8,30.8,29.69,NW,315,3.6,5.8,96,0.00,,,0.00,WeatherDisplay:10.37,2013-02-27 17:10:00,
2013-02-27 11:15:00,31.8,30.8,29.69,North,356,4.7,6.0,96,0.01,RA,,0.01,WeatherDisplay:10.37,2013-02-27 17:15:00,
2013-02-27 11:20:00,31.9,30.9,29.69,SSE,152,5.4,8.1,96,0.01,RA,,0.01,WeatherDisplay:10.37,2013-02-27 17:20:00,
2013-02-27 11:25:00,32.0,31.0,29.69,NNW,345,5.3,8.1,96,0.01,,,0.01,WeatherDisplay:10.37,2013-02-27 17:25:00,
2013-02-27 11:30:00,32.0,31.0,29.69,NE,39,5.7,8.0,96,0.02,RA,,0.02,WeatherDisplay:10.37,2013-02-27 17:30:00,
2013-02-27 11:35:00,32.1,31.1,29.69,NNW,328,4.7,6.9,96,0.02,RA,,0.02,WeatherDisplay:10.37,2013-02-27 17:35:00,
2013-02-27 11:40:00,32.1,31.1,29.69,NE,43,5.4,9.2,96,0.02,,,0.02,WeatherDisplay:10.37,2013-02-27 17:40:00,
2013-02-27 11:45:00,32.2,31.2,29.69,NNW,340,4.2,5.8,96,0.02,,,0.02,WeatherDisplay:10.37,2013-02-27 17:45:00,
2013-02-27 11:50:00,32.3,31.3,29.69,NW,321,4.4,6.9,96,0.02,,,0.02,WeatherDisplay:10.37,2013-02-27 17:50:00,
2013-02-27 11:55:00,32.3,31.3,29.69,North,349,5.7,6.9,96,0.02,,,0.02,WeatherDisplay:10.37,2013-02-27 17:55:00,
2013-02-27 12:00:00,32.3,31.3,29.69,NE,49,5.6,10.4,96,0.03,RA,,0.03,WeatherDisplay:10.37,2013-02-27 18:00:00,
2013-02-27 12:06:00,32.4,31.4,29.69,WNW,297,6.2,7.0,96,0.03,RA,,0.03,WeatherDisplay:10.37,2013-02-27 18:06:00,
2013-02-27 12:11:00,32.4,31.4,29.69,SE,134,5.6,10.4,96,0.03,,,0.03,WeatherDisplay:10.37,2013-02-27 18:11:00,
2013-02-27 12:16:00,32.4,31.4,29.69,NW,320,5.5,10.4,96,0.02,,,0.03,WeatherDisplay:10.37,2013-02-27 18:16:00,
2013-02-27 12:21:00,32.5,31.5,29.69,NNW,330,4.1,8.1,96,0.03,RA,,0.04,WeatherDisplay:10.37,2013-02-27 18:21:00,
2013-02-27 12:26:00,32.5,31.5,29.69,NW,316,6.2,11.5,96,0.03,RA,,0.04,WeatherDisplay:10.37,2013-02-27 18:26:00,
2013-02-27 12:31:00,32.5,31.5,29.69,NNW,332,6.2,10.4,96,0.02,,,0.04,WeatherDisplay:10.37,2013-02-27 18:31:00,
2013-02-27 12:36:00,32.4,31.4,29.69,NE,37,7.7,11.5,96,0.03,RA,,0.05,WeatherDisplay:10.37,2013-02-27 18:36:00,
2013-02-27 12:41:00,32.4,31.4,29.69,North,356,6.7,9.2,96,0.03,RA,,0.05,WeatherDisplay:10.37,2013-02-27 18:41:00,
2013-02-27 12:46:00,32.4,31.4,29.69,NW,324,6.8,10.4,96,0.03,,,0.05,WeatherDisplay:10.37,2013-02-27 18:46:00,
2013-02-27 12:51:00,32.4,31.4,29.69,NW,313,5.3,9.2,96,0.03,,,0.05,WeatherDisplay:10.37,2013-02-27 18:51:00,
2013-02-27 12:56:00,32.4,31.4,29.69,NW,322,6.0,9.2,96,0.03,,,0.05,WeatherDisplay:10.37,2013-02-27 18:56:00,
2013-02-27 13:01:00,32.3,31.3,29.69,NW,316,6.6,9.2,96,0.02,,,0.05,WeatherDisplay:10.37,2013-02-27 19:01:00,
2013-02-27 13:06:00,32.3,31.3,29.69,NNW,334,7.1,11.5,96,0.02,,,0.05,WeatherDisplay:10.37,2013-02-27 19:06:00,
2013-02-27 13:11:00,32.2,31.2,29.69,NNW,342,6.9,9.0,96,0.03,RA,,0.06,WeatherDisplay:10.37,2013-02-27 19:11:00,
2013-02-27 13:16:00,32.2,31.2,29.69,North,356,5.7,9.2,96,0.03,RA,,0.06,WeatherDisplay:10.37,2013-02-27 19:16:00,
2013-02-27 13:21:00,32.3,31.3,29.69,NW,313,6.1,9.2,96,0.02,,,0.06,WeatherDisplay:10.37,2013-02-27 19:21:00,
2013-02-27 13:26:00,32.3,31.3,29.69,NNW,331,5.4,9.0,96,0.02,,,0.06,WeatherDisplay:10.37,2013-02-27 19:26:00,
2013-02-27 13:31:00,32.3,31.3,29.69,NW,313,5.7,10.4,96,0.02,,,0.06,WeatherDisplay:10.37,2013-02-27 19:31:00,
2013-02-27 13:36:00,32.3,31.3,29.69,NE,46,5.2,8.1,96,0.02,RA,,0.07,WeatherDisplay:10.37,2013-02-27 19:36:00,
2013-02-27 13:41:00,32.3,31.3,29.69,NW,324,5.8,9.2,96,0.02,RA,,0.07,WeatherDisplay:10.37,2013-02-27 19:41:00,
2013-02-27 13:46:00,32.3,31.3,29.70,NW,304,6.2,9.2,96,0.02,,,0.07,WeatherDisplay:10.37,2013-02-27 19:46:00,
2013-02-27 13:51:00,32.4,31.4,29.70,NW,325,7.8,13.8,96,0.02,,,0.07,WeatherDisplay:10.37,2013-02-27 19:51:00,
2013-02-27 13:56:00,32.4,31.4,29.70,North,6,6.4,10.4,96,0.03,RA,,0.08,WeatherDisplay:10.37,2013-02-27 19:56:00,
2013-02-27 14:01:00,32.4,31.4,29.70,NW,312,5.4,8.1,96,0.03,RA,,0.08,WeatherDisplay:10.37,2013-02-27 20:01:00,
2013-02-27 14:06:00,32.4,31.4,29.70,NNW,339,6.3,11.5,96,0.03,,,0.08,WeatherDisplay:10.37,2013-02-27 20:06:00,
2013-02-27 14:11:00,32.4,31.4,29.70,NNW,332,5.6,11.5,96,0.02,,,0.08,WeatherDisplay:10.37,2013-02-27 20:11:00,
2013-02-27 14:16:00,32.5,31.5,29.70,NW,313,6.0,10.4,96,0.02,,,0.08,WeatherDisplay:10.37,2013-02-27 20:16:00,
2013-02-27 14:21:00,32.4,31.4,29.70,NW,325,7.0,10.0,96,0.02,,,0.09,WeatherDisplay:10.37,2013-02-27 20:21:00,
2013-02-27 14:26:00,32.4,31.4,29.70,NNE,30,6.0,11.5,96,0.03,RA,,0.09,WeatherDisplay:10.37,2013-02-27 20:26:00,
2013-02-27 14:32:00,32.5,31.7,29.70,WNW,295,5.4,6.0,97,0.03,RA,,0.09,WeatherDisplay:10.37,2013-02-27 20:32:00,
2013-02-27 14:37:00,32.5,31.7,29.71,NW,311,4.2,6.9,97,0.02,,,0.09,WeatherDisplay:10.37,2013-02-27 20:37:00,
2013-02-27 14:42:00,32.5,31.7,29.71,NW,325,4.3,6.9,97,0.02,,,0.09,WeatherDisplay:10.37,2013-02-27 20:42:00,
2013-02-27 14:47:00,32.5,31.7,29.71,NW,312,6.0,9.2,97,0.02,,,0.09,WeatherDisplay:10.37,2013-02-27 20:47:00,
2013-02-27 14:52:00,32.5,31.7,29.71,WNW,291,5.6,8.1,97,0.02,,,0.09,WeatherDisplay:10.37,2013-02-27 20:52:00,
2013-02-27 14:57:00,32.5,31.7,29.72,NNE,26,5.0,9.2,97,0.02,RA,,0.10,WeatherDisplay:10.37,2013-02-27 20:57:00,
2013-02-27 15:02:00,32.5,31.7,29.72,North,1,5.3,10.4,97,0.02,RA,,0.10,WeatherDisplay:10.37,2013-02-27 21:02:00,
2013-02-27 15:07:00,32.5,31.7,29.72,NW,316,6.2,10.4,97,0.02,,,0.10,WeatherDisplay:10.37,2013-02-27 21:07:00,
2013-02-27 15:12:00,32.5,31.7,29.72,North,349,5.9,10.4,97,0.02,,,0.10,WeatherDisplay:10.37,2013-02-27 21:12:00,
2013-02-27 15:17:00,32.5,31.7,29.72,North,351,5.6,9.2,97,0.02,,,0.10,WeatherDisplay:10.37,2013-02-27 21:17:00,
2013-02-27 15:22:00,32.4,31.6,29.72,NW,305,6.4,10.4,97,0.01,,,0.10,WeatherDisplay:10.37,2013-02-27 21:22:00,
2013-02-27 15:27:00,32.4,31.6,29.72,North,349,6.0,9.2,97,0.01,,,0.10,WeatherDisplay:10.37,2013-02-27 21:27:00,
2013-02-27 15:32:00,32.4,31.6,29.72,NW,314,5.9,9.2,97,0.01,,,0.10,WeatherDisplay:10.37,2013-02-27 21:32:00,
2013-02-27 15:37:00,32.4,31.6,29.73,NW,304,6.8,11.5,97,0.01,,,0.10,WeatherDisplay:10.37,2013-02-27 21:37:00,
2013-02-27 15:42:00,32.3,31.5,29.73,NE,41,7.3,11.0,97,0.01,,,0.10,WeatherDisplay:10.37,2013-02-27 21:42:00,
2013-02-27 15:47:00,32.3,31.5,29.73,NW,323,6.1,8.1,97,0.01,,,0.10,WeatherDisplay:10.37,2013-02-27 21:47:00,
2013-02-27 15:52:00,32.3,31.5,29.73,NNW,330,5.9,9.2,97,0.01,,,0.10,WeatherDisplay:10.37,2013-02-27 21:52:00,
2013-02-27 15:57:00,32.3,31.5,29.73,NW,309,5.4,9.2,97,0.00,,,0.10,WeatherDisplay:10.37,2013-02-27 21:57:00,
2013-02-27 16:02:00,32.3,31.5,29.73,WNW,295,7.1,10.4,97,0.00,,,0.10,WeatherDisplay:10.37,2013-02-27 22:02:00,
2013-02-27 16:07:00,32.3,31.5,29.74,NNW,340,5.0,9.2,97,0.00,,,0.10,WeatherDisplay:10.37,2013-02-27 22:07:00,
2013-02-27 16:12:00,32.3,31.5,29.74,North,11,7.5,10.4,97,0.00,,,0.10,WeatherDisplay:10.37,2013-02-27 22:12:00,
2013-02-27 16:17:00,32.3,31.5,29.74,WNW,297,5.0,8.1,97,0.00,,,0.10,WeatherDisplay:10.37,2013-02-27 22:17:00,
2013-02-27 16:22:00,32.3,31.5,29.74,ENE,58,6.9,11.5,97,0.00,,,0.10,WeatherDisplay:10.37,2013-02-27 22:22:00,
2013-02-27 16:27:00,32.3,31.5,29.74,NNW,336,8.0,10.4,97,0.00,,,0.10,WeatherDisplay:10.37,2013-02-27 22:27:00,
2013-02-27 16:32:00,32.2,31.4,29.74,NNW,334,7.3,9.2,97,0.00,,,0.10,WeatherDisplay:10.37,2013-02-27 22:32:00,
2013-02-27 16:38:00,32.2,31.4,29.75,North,1,5.6,9.2,97,0.00,,,0.10,WeatherDisplay:10.37,2013-02-27 22:38:00,
2013-02-27 16:43:00,32.2,31.4,29.75,NW,311,6.0,8.1,97,0.00,,,0.10,WeatherDisplay:10.37,2013-02-27 22:43:00,
2013-02-27 16:48:00,32.1,31.3,29.75,NW,318,5.9,8.0,97,0.00,,,0.10,WeatherDisplay:10.37,2013-02-27 22:48:00,
2013-02-27 16:53:00,32.1,31.3,29.75,NNW,338,5.9,8.1,97,0.00,,,0.10,WeatherDisplay:10.37,2013-02-27 22:53:00,
2013-02-27 16:58:00,32.0,31.2,29.75,NW,324,6.1,9.2,97,0.00,,,0.10,WeatherDisplay:10.37,2013-02-27 22:58:00,
2013-02-27 17:03:00,32.0,31.2,29.75,NW,314,6.1,10.4,97,0.00,,,0.10,WeatherDisplay:10.37,2013-02-27 23:03:00,
2013-02-27 17:08:00,31.8,31.0,29.75,NNW,329,7.4,10.4,97,0.00,,,0.10,WeatherDisplay:10.37,2013-02-27 23:08:00,
2013-02-27 17:13:00,31.7,30.9,29.75,North,6,6.6,10.4,97,0.00,,,0.10,WeatherDisplay:10.37,2013-02-27 23:13:00,
2013-02-27 17:18:00,31.6,30.8,29.76,NNW,339,8.4,11.5,97,0.00,,,0.10,WeatherDisplay:10.37,2013-02-27 23:18:00,
2013-02-27 17:23:00,31.6,30.8,29.76,NNW,329,6.9,9.2,97,0.00,,,0.10,WeatherDisplay:10.37,2013-02-27 23:23:00,
2013-02-27 17:28:00,31.5,30.7,29.76,NW,321,7.2,11.5,97,0.00,,,0.10,WeatherDisplay:10.37,2013-02-27 23:28:00,
2013-02-27 17:33:00,31.5,30.7,29.76,NNE,27,6.7,8.1,97,0.00,,,0.10,WeatherDisplay:10.37,2013-02-27 23:33:00,
2013-02-27 17:38:00,31.5,30.7,29.76,NNE,13,6.0,10.4,97,0.00,,,0.10,WeatherDisplay:10.37,2013-02-27 23:38:00,
2013-02-27 17:43:00,31.4,30.6,29.77,WNW,287,6.7,9.2,97,0.00,,,0.10,WeatherDisplay:10.37,2013-02-27 23:43:00,
2013-02-27 17:48:00,31.4,30.6,29.77,NNW,332,6.9,9.2,97,0.00,,,0.10,WeatherDisplay:10.37,2013-02-27 23:48:00,
2013-02-27 17:53:00,31.4,30.6,29.77,North,356,7.4,11.5,97,0.00,,,0.10,WeatherDisplay:10.37,2013-02-27 23:53:00,
2013-02-27 17:58:00,31.3,30.5,29.77,NW,324,6.0,10.4,97,0.00,,,0.10,WeatherDisplay:10.37,2013-02-27 23:58:00,
2013-02-27 18:03:00,31.3,30.5,29.77,WNW,303,7.0,9.2,97,0.00,,,0.10,WeatherDisplay:10.37,2013-02-28 00:03:00,
2013-02-27 18:08:00,31.3,30.5,29.77,NNW,334,7.3,11.5,97,0.00,,,0.10,WeatherDisplay:10.37,2013-02-28 00:08:00,
2013-02-27 18:13:00,31.3,30.5,29.77,NW,312,7.5,11.5,97,0.00,,,0.10,WeatherDisplay:10.37,2013-02-28 00:13:00,
2013-02-27 18:18:00,31.3,30.5,29.78,NW,311,6.7,9.2,97,0.00,,,0.10,WeatherDisplay:10.37,2013-02-28 00:18:00,
2013-02-27 18:23:00,31.3,30.5,29.78,WNW,297,4.8,8.0,97,0.00,,,0.10,WeatherDisplay:10.37,2013-02-28 00:23:00,
2013-02-27 18:28:00,31.3,30.5,29.78,NNW,343,6.4,9.2,97,0.00,,,0.10,WeatherDisplay:10.37,2013-02-28 00:28:00,
2013-02-27 18:33:00,31.3,30.5,29.78,NW,309,6.9,11.0,97,0.00,,,0.10,WeatherDisplay:10.37,2013-02-28 00:33:00,
2013-02-27 18:38:00,31.3,30.5,29.78,NNW,327,7.8,10.4,97,0.00,,,0.10,WeatherDisplay:10.37,2013-02-28 00:38:00,
2013-02-27 18:43:00,31.3,30.5,29.78,NW,325,7.1,11.5,97,0.00,,,0.10,WeatherDisplay:10.37,2013-02-28 00:43:00,
2013-02-27 18:48:00,31.3,30.5,29.78,NNW,335,8.0,12.0,97,0.00,,,0.10,WeatherDisplay:10.37,2013-02-28 00:48:00,
2013-02-27 18:53:00,31.3,30.5,29.79,NW,318,6.9,10.4,97,0.00,,,0.10,WeatherDisplay:10.37,2013-02-28 00:53:00,
2013-02-27 18:59:00,31.3,30.5,29.78,NNW,343,6.4,9.2,97,0.00,,,0.10,WeatherDisplay:10.37,2013-02-28 00:59:00,
2013-02-27 19:04:00,31.3,30.5,29.79,NW,321,6.8,10.4,97,0.00,,,0.10,WeatherDisplay:10.37,2013-02-28 01:04:00,
2013-02-27 19:09:00,31.3,30.5,29.79,NE,36,7.3,11.0,97,0.00,,,0.10,WeatherDisplay:10.37,2013-02-28 01:09:00,
2013-02-27 19:14:00,31.3,30.5,29.79,NW,307,6.8,9.2,97,0.00,,,0.10,WeatherDisplay:10.37,2013-02-28 01:14:00,
2013-02-27 19:19:00,31.3,30.5,29.79,NNE,27,6.1,11.0,97,0.00,,,0.10,WeatherDisplay:10.37,2013-02-28 01:19:00,
2013-02-27 19:24:00,31.2,30.4,29.79,WNW,295,5.3,8.1,97,0.00,,,0.10,WeatherDisplay:10.37,2013-02-28 01:24:00,
2013-02-27 19:29:00,31.2,30.4,29.79,NNW,329,7.3,8.1,97,0.00,,,0.10,WeatherDisplay:10.37,2013-02-28 01:29:00,
2013-02-27 19:34:00,31.2,30.4,29.79,NNW,327,5.2,9.2,97,0.00,,,0.10,WeatherDisplay:10.37,2013-02-28 01:34:00,
2013-02-27 19:39:00,31.2,30.4,29.79,NNE,12,5.8,8.1,97,0.00,,,0.10,WeatherDisplay:10.37,2013-02-28 01:39:00,
2013-02-27 19:44:00,31.2,30.4,29.79,NW,312,4.5,10.4,97,0.00,,,0.10,WeatherDisplay:10.37,2013-02-28 01:44:00,
2013-02-27 19:49:00,31.2,30.4,29.80,NNW,341,5.6,10.4,97,0.00,,,0.10,WeatherDisplay:10.37,2013-02-28 01:49:00,
2013-02-27 19:54:00,31.2,30.4,29.80,NNW,335,5.8,11.5,97,0.00,,,0.10,WeatherDisplay:10.37,2013-02-28 01:54:00,
2013-02-27 19:59:00,31.2,30.4,29.80,NW,316,5.7,6.9,97,0.00,,,0.10,WeatherDisplay:10.37,2013-02-28 01:59:00,
2013-02-27 20:04:00,31.2,30.4,29.80,NNW,329,4.7,6.9,97,0.00,,,0.10,WeatherDisplay:10.37,2013-02-28 02:04:00,
2013-02-27 20:10:00,31.2,30.4,29.80,NNW,329,4.9,8.1,97,0.00,,,0.10,WeatherDisplay:10.37,2013-02-28 02:10:00,
2013-02-27 20:15:00,31.2,30.4,29.80,NW,321,5.7,10.4,97,0.00,,,0.10,WeatherDisplay:10.37,2013-02-28 02:15:00,
2013-02-27 20:20:00,31.2,30.4,29.80,NNE,23,4.7,9.2,97,0.00,,,0.10,WeatherDisplay:10.37,2013-02-28 02:20:00,
2013-02-27 20:25:00,31.2,30.4,29.80,NNE,22,4.3,8.1,97,0.00,,,0.10,WeatherDisplay:10.37,2013-02-28 02:25:00,
2013-02-27 20:30:00,31.3,30.5,29.80,NNW,345,7.5,11.5,97,0.00,,,0.10,WeatherDisplay:10.37,2013-02-28 02:30:00,
2013-02-27 20:35:00,31.3,30.5,29.80,NNE,19,7.9,12.7,97,0.00,,,0.10,WeatherDisplay:10.37,2013-02-28 02:35:00,
2013-02-27 20:40:00,31.4,30.6,29.80,NE,51,6.6,9.2,97,0.00,,,0.10,WeatherDisplay:10.37,2013-02-28 02:40:00,
2013-02-27 20:45:00,31.4,30.6,29.81,North,349,5.2,8.1,97,0.00,,,0.10,WeatherDisplay:10.37,2013-02-28 02:45:00,
2013-02-27 20:50:00,31.3,30.5,29.81,NW,314,5.1,9.2,97,0.00,,,0.10,WeatherDisplay:10.37,2013-02-28 02:50:00,
2013-02-27 20:55:00,31.4,30.6,29.81,NNW,342,6.0,12.0,97,0.00,,,0.10,WeatherDisplay:10.37,2013-02-28 02:55:00,
2013-02-27 21:00:00,31.4,30.6,29.81,NNW,335,8.0,12.0,97,0.00,,,0.10,WeatherDisplay:10.37,2013-02-28 03:00:00,
2013-02-27 21:05:00,31.4,30.6,29.81,NNW,330,5.2,8.1,97,0.00,,,0.10,WeatherDisplay:10.37,2013-02-28 03:05:00,
2013-02-27 21:10:00,31.4,30.6,29.81,WNW,295,5.8,10.4,97,0.00,,,0.10,WeatherDisplay:10.37,2013-02-28 03:10:00,
2013-02-27 21:15:00,31.4,30.6,29.81,NW,308,5.2,6.9,97,0.00,,,0.10,WeatherDisplay:10.37,2013-02-28 03:15:00,
2013-02-27 21:20:00,31.4,30.6,29.81,NNW,341,6.0,9.0,97,0.00,,,0.10,WeatherDisplay:10.37,2013-02-28 03:20:00,
2013-02-27 21:25:00,31.4,30.6,29.81,NNE,33,5.7,8.1,97,0.00,,,0.10,WeatherDisplay:10.37,2013-02-28 03:25:00,
2013-02-27 21:30:00,31.3,30.5,29.82,North,351,6.0,10.4,97,0.00,,,0.10,WeatherDisplay:10.37,2013-02-28 03:30:00,
2013-02-27 21:35:00,31.3,30.5,29.82,NE,54,5.6,6.9,97,0.00,,,0.10,WeatherDisplay:10.37,2013-02-28 03:35:00,
2013-02-27 21:40:00,31.2,30.4,29.82,NNW,330,4.9,8.1,97,0.00,,,0.10,WeatherDisplay:10.37,2013-02-28 03:40:00,
2013-02-27 21:45:00,31.2,30.4,29.82,NE,53,5.6,8.0,97,0.00,,,0.10,WeatherDisplay:10.37,2013-02-28 03:45:00,
2013-02-27 21:50:00,31.2,30.4,29.82,NNE,13,4.6,6.9,97,0.00,,,0.10,WeatherDisplay:10.37,2013-02-28 03:50:00,
2013-02-27 21:55:00,31.2,30.4,29.82,North,11,6.1,10.4,97,0.00,,,0.10,WeatherDisplay:10.37,2013-02-28 03:55:00,
2013-02-27 22:00:00,31.2,30.4,29.82,North,354,5.0,10.4,97,0.00,,,0.10,WeatherDisplay:10.37,2013-02-28 04:00:00,
2013-02-27 22:06:00,31.2,30.4,29.82,NE,38,4.5,8.1,97,0.00,,,0.10,WeatherDisplay:10.37,2013-02-28 04:06:00,
2013-02-27 22:11:00,31.2,30.4,29.82,NNE,23,6.4,10.4,97,0.00,,,0.10,WeatherDisplay:10.37,2013-02-28 04:11:00,
2013-02-27 22:16:00,31.1,30.3,29.82,NW,316,5.5,7.0,97,0.00,,,0.10,WeatherDisplay:10.37,2013-02-28 04:16:00,
2013-02-27 22:21:00,31.0,30.2,29.82,NW,310,4.3,8.1,97,0.00,,,0.10,WeatherDisplay:10.37,2013-02-28 04:21:00,
2013-02-27 22:26:00,31.0,30.2,29.82,NW,326,5.3,6.9,97,0.00,,,0.10,WeatherDisplay:10.37,2013-02-28 04:26:00,
2013-02-27 22:31:00,31.0,30.2,29.82,NNW,345,5.1,8.0,97,0.00,,,0.10,WeatherDisplay:10.37,2013-02-28 04:31:00,
2013-02-27 22:36:00,31.0,30.2,29.82,NNW,332,4.7,6.9,97,0.00,,,0.10,WeatherDisplay:10.37,2013-02-28 04:36:00,
2013-02-27 22:41:00,31.1,30.3,29.82,NNE,26,5.6,11.5,97,0.00,,,0.10,WeatherDisplay:10.37,2013-02-28 04:41:00,
2013-02-27 22:46:00,31.2,30.4,29.82,NNW,330,5.2,8.1,97,0.00,,,0.10,WeatherDisplay:10.37,2013-02-28 04:46:00,
2013-02-27 22:51:00,31.1,30.3,29.82,NNW,336,6.0,9.2,97,0.00,,,0.10,WeatherDisplay:10.37,2013-02-28 04:51:00,
2013-02-27 22:56:00,31.1,30.3,29.82,NE,43,5.1,8.1,97,0.00,,,0.10,WeatherDisplay:10.37,2013-02-28 04:56:00,
2013-02-27 23:00:00,31.1,30.3,29.82,NNE,18,5.6,10.4,97,0.00,,,0.10,WeatherDisplay:10.37,2013-02-28 05:00:00,
2013-02-27 23:05:00,31.1,30.3,29.82,NNW,339,5.4,8.1,97,0.00,,,0.10,WeatherDisplay:10.37,2013-02-28 05:05:00,
2013-02-27 23:10:00,31.1,30.3,29.82,NNE,18,4.8,8.1,97,0.00,,,0.10,WeatherDisplay:10.37,2013-02-28 05:10:00,
2013-02-27 23:15:00,31.0,30.0,29.82,NW,317,4.7,10.0,96,0.00,,,0.10,WeatherDisplay:10.37,2013-02-28 05:15:00,
2013-02-27 23:20:00,30.9,29.9,29.82,ENE,69,5.1,6.9,96,0.00,,,0.10,WeatherDisplay:10.37,2013-02-28 05:20:00,
2013-02-27 23:25:00,30.7,29.7,29.82,WNW,302,5.6,9.2,96,0.00,,,0.10,WeatherDisplay:10.37,2013-02-28 05:25:00,
2013-02-27 23:31:00,30.6,29.6,29.82,NW,320,5.4,8.1,96,0.00,,,0.10,WeatherDisplay:10.37,2013-02-28 05:31:00,
2013-02-27 23:36:00,30.5,29.5,29.82,NNW,330,5.2,6.9,96,0.00,,,0.10,WeatherDisplay:10.37,2013-02-28 05:36:00,
2013-02-27 23:41:00,30.5,29.5,29.83,NW,315,5.3,9.2,96,0.00,,,0.10,WeatherDisplay:10.37,2013-02-28 05:41:00,
2013-02-27 23:46:00,30.4,29.4,29.82,NNE,20,5.1,9.2,96,0.00,,,0.10,WeatherDisplay:10.37,2013-02-28 05:46:00,
2013-02-27 23:51:00,30.4,29.4,29.82,NE,40,5.3,8.1,96,0.00,,,0.10,WeatherDisplay:10.37,2013-02-28 05:51:00,
2013-02-27 23:56:00,30.2,29.2,29.83,NNW,339,3.8,6.0,96,0.00,,,0.10,WeatherDisplay:10.37,2013-02-28 05:56:00,